Flag for Palestinian Territories Weather past 2 weeks in Hebron, West Bank, Palestinian Territories

61 °F

Passing clouds.

Feels Like: 61 °F
Forecast: 43 / 52 °F
Wind: 8 mph from Southeast

Location: Ben Gurion International Airport

Current Time: Dec 1, 2015 at 2:34:04 AM

Latest Report: Dec 1, 2015 at 1:50 AM

Visibility: N/A

Pressure: 30.04 "Hg (27.03 "Hg at 894m altitude)

Humidity: 88%

Dew point: 57 °F

Location of HebronLocation

Historic Weather in Hebron — Graph


Hebron temperature yesterday

Maximum temperature yesterday: 72 °F (at 10:50 AM)
Minimum temperature yesterday: 57 °F (at 4:20 AM)
Average temperature yesterday: 64 °F

Past Weeks' High & Low Weather Summary

High81 °F (Nov 26, 11:20 AM)94% (Nov 16, 11:20 AM)30.18 "Hg (Nov 16, 11:20 AM)
Low55 °F (Nov 24, 6:20 AM)25% (Nov 25, 9:20 AM)29.74 "Hg (Nov 16, 11:50 AM)
Average67 °F62%30.01 "Hg
* Reported Nov 16 1:20 AM — Dec 1 1:20 AM, Hebron, Weather by CustomWeather, © 2015

Note: Actual official high and low records may vary slightly from our data, if they occured in-between our weather recording intervals... More about our weather records


Hebron weather history for previous 24 hours

Time TempWeatherWind HumidityBarometerVisibility
1:20 AM
Tue, Dec 1
61 °FPassing clouds.5 mph88%30.01 "HgN/A
12:50 AM59 °FRain. Passing clouds.5 mph94%30.01 "HgN/A
12:20 AM61 °FRain. Passing clouds.6 mph88%30.01 "HgN/A
11:50 PM
Mon, Nov 30
61 °FRain. Passing clouds.5 mph83%30.01 "HgN/A
11:20 PM61 °FRain. Passing clouds.6 mph88%30.01 "HgN/A
10:50 PM63 °FPassing clouds.7 mph83%30.01 "HgN/A
10:20 PM63 °FPassing clouds.5 mph83%30.01 "HgN/A
9:50 PM64 °FPassing clouds.5 mph83%30.01 "HgN/A
9:20 PM64 °FPassing clouds.3 mph78%30.01 "HgN/A
8:50 PM63 °FPassing clouds.5 mph88%30.01 "HgN/A
8:20 PM63 °FPassing clouds.6 mph88%30.01 "HgN/A
7:50 PM64 °FPassing clouds.8 mph83%30.01 "HgN/A
7:20 PM64 °FPassing clouds.7 mph78%30.01 "HgN/A
6:50 PM64 °FPassing clouds.6 mph83%30.01 "HgN/A
6:20 PM66 °FPassing clouds.6 mph78%30.01 "HgN/A
5:50 PM66 °FPassing clouds.5 mph78%30.01 "HgN/A
5:20 PM66 °FPassing clouds.5 mph78%30.01 "HgN/A
4:50 PM66 °FPassing clouds.3 mph78%30.01 "HgN/A
4:20 PM66 °FScattered clouds.3 mph78%30.01 "HgN/A
3:50 PM68 °FScattered clouds.5 mph78%29.98 "HgN/A
3:20 PM66 °FScattered clouds.5 mph83%29.98 "HgN/A
2:50 PM66 °FScattered clouds.7 mph83%30.01 "HgN/A
2:20 PM64 °FScattered clouds.2 mph94%29.98 "HgN/A
1:50 PM63 °FRain. Partly sunny.2 mph94%29.98 "Hg4 mi
1:20 PM72 °FPartly sunny.10 mph57%29.98 "HgN/A
12:50 PM72 °FPartly sunny.12 mph57%29.98 "HgN/A
12:20 PM72 °FPartly sunny.8 mph53%30.01 "HgN/A
11:50 AM72 °FScattered clouds.8 mph53%30.01 "HgN/A
11:20 AM72 °FScattered clouds.8 mph53%30.01 "HgN/A
10:50 AM72 °FScattered clouds.7 mph57%30.04 "HgN/A
10:20 AM70 °FScattered clouds.8 mph60%30.04 "HgN/A
8:50 AM66 °FScattered clouds.3 mph73%30.07 "HgN/A
8:20 AM63 °FPassing clouds.2 mph77%30.07 "HgN/A
7:50 AM61 °FPassing clouds.3 mph77%30.04 "HgN/A
7:20 AM59 °FPassing clouds.6 mph82%30.04 "HgN/A
6:50 AM59 °FPassing clouds.5 mph82%30.04 "HgN/A
6:20 AM59 °FPassing clouds.2 mph82%30.04 "HgN/A
5:50 AM57 °FPassing clouds.3 mph88%30.04 "HgN/A
5:20 AM59 °FPassing clouds.3 mph82%30.04 "HgN/A
4:50 AM57 °FPassing clouds.2 mph88%30.04 "HgN/A
4:20 AM57 °FClear.2 mph88%30.04 "Hg10 mi
3:50 AM59 °FClear.5 mph82%30.04 "Hg10 mi
2:50 AM59 °FPassing clouds.3 mph82%30.04 "HgN/A
2:20 AM59 °FPassing clouds.5 mph82%30.04 "HgN/A
Weather by CustomWeather, © 2015

See weather overviewHow to use our weather pages